Regional Weather Roundup
Issued by NWS

Home | Current Version | Previous Version | Text Only | Print | Product List | Glossary Off
Versions: 1 2 3 4 5 6 7 8 9 10 11 12 13 14 15 16 17 18 19 20 21 22 23 24 25 26 27 28 29 30 31 32 33 34 35 36 37 38 39 40 41 42 43 44 45 46 47 48 49 50

000
ASUS43 KIND 271309
RWRIN

WEATHER ROUNDUP FOR INDIANA
NATIONAL WEATHER SERVICE INDIANAPOLIS IN
800 AM EST SAT DEC 27 2014

NOTE: "FAIR" INDICATES FEW OR NO CLOUDS BELOW 12,000 FEET WITH NO
SIGNIFICANT WEATHER AND/OR OBSTRUCTIONS TO VISIBILITY.

* - STATION DOES NOT REPORT WEATHER SUCH AS PRECIPITATION OR FOG.

+ - STATION NOT QUALITY CONTROLLED BY THE NATIONAL WEATHER SERVICE.
    USE DATA WITH CAUTION...ESPECIALLY DEWPOINT AND RELATIVE
    HUMIDITY OBSERVATIONS.

INZ001>003-010>013-019-020-271400-
NORTHWEST INDIANA

CITY           SKY/WX    TMP DP  RH WIND       PRES   REMARKS
GARY /AIRPORT/ CLOUDY    48  43  81 S10G28    30.00S
KNOX *+        CLOUDY    44  40  86 S13       30.03S
LA PORTE +     CLOUDY    46  46 100 SW12      30.03S FOG
MICHIGAN CITY+ CLOUDY    45  43  93 SW12      30.02S FOG
MONTICELLO +   CLOUDY    44  44  99 S12       30.06R FOG
RENSSELAER +   CLOUDY    45  45 100 S14G20    30.05R
VALPARAISO     CLOUDY    45  43  93 S13       30.03R

$$

LMZ046-743>745-271400-
SOUTHERN LAKE MICHIGAN

STATION/POSITION TIME  TEMP WIND        PRES
                       AIR  DIR/SP/G
                 (UTC) (F)  (DEG/KT/KT) (MB)
MICHIGAN CITY    1300   45  170/ 15/ 18   N/A

$$

INZ004-005-014>016-021>024-271400-
NORTH CENTRAL INDIANA

CITY           SKY/WX    TMP DP  RH WIND       PRES   REMARKS
GOSHEN         CLOUDY    44  42  93 S15       30.04S
LOGANSPORT +   CLOUDY    43  41  93 S9        30.08R FOG
PERU/GRISSOM   CLOUDY    44  44 100 S14       30.08R
ROCHESTER +    CLOUDY    45  45 100 SW10G17   30.07R FOG
SOUTH BEND     CLOUDY    45  43  93 S13       30.03S FOG
WARSAW +       DRIZZLE   43  41  93 S5        30.06R

$$

INZ006>009-017-018-025>027-271400-
NORTHEAST INDIANA

CITY           SKY/WX    TMP DP  RH WIND       PRES   REMARKS
ANGOLA *+      CLOUDY    43  41  93 S10       30.05F
AUBURN +       CLOUDY    43  39  87 S7        30.08F
FORT WAYNE     CLOUDY    43  40  89 S14       30.09S
HUNTINGTON +   CLOUDY    42  40  91 S9        30.08F

$$

INZ028-029-035-036-043>045-051>053-271400-
WEST CENTRAL INDIANA

CITY           SKY/WX    TMP DP  RH WIND       PRES   REMARKS
CRAWFORDSVL +  CLOUDY    41  39  93 S9        30.10R FOG
GREENCASTLE +  CLOUDY    43  39  87 S6        30.11R FOG
LAFAYETTE      CLOUDY    44  43  96 SW8       30.08R FOG
TERRE HAUTE    CLOUDY    44  42  93 S12       30.12R

$$

INZ030>032-037>040-046>048-054>057-064-065-271400-
CENTRAL INDIANA

CITY           SKY/WX    TMP DP  RH WIND       PRES   REMARKS
CP ATTERBURY + CLOUDY    41  37  87 MISG      30.16F
COLUMBUS       CLOUDY    41  37  87 S9        30.17S
FRANKFORT +    CLOUDY   N/A N/A N/A S9        30.11R HAZE
GREENWOOD *+   CLOUDY    43  39  87 SE10      30.14F
INDIANAPOLIS   CLOUDY    42  40  92 SE8       30.11F
-EAGLE CREEK   CLOUDY    43  41  93 S7        30.11S
KOKOMO *+      CLOUDY    45  39  81 S16G22    30.08F
MARION +       CLOUDY    42  39  91 S15       30.11S
MT COMFORT *+  CLOUDY    41 N/A N/A S10       30.14S
SHELBYVILLE    CLOUDY    43  39  86 S12       30.15S
ZIONSVILLE +   CLOUDY    43  40  88 S12       30.10F

$$

INZ033-034-041-042-049-050-058-059-271400-
EAST CENTRAL INDIANA

CITY           SKY/WX    TMP DP  RH WIND       PRES   REMARKS
MUNCIE         CLOUDY    43  40  89 S14       30.11F

$$

INZ060-061-067>069-081>083-085>088-271400-
SOUTHWEST INDIANA

CITY           SKY/WX    TMP DP  RH WIND       PRES   REMARKS
EVANSVILLE     CLOUDY    47  44  90 S5        30.17R
HUNTINGBURG *+ CLOUDY    45  41  87 S10       30.17S
WASHINGTON +   CLOUDY    44  40  88 S9        30.15R FOG

$$

INZ062-063-066-070>080-084-089>092-271400-
SOUTH CENTRAL AND SOUTHEAST INDIANA

CITY           SKY/WX    TMP DP  RH WIND       PRES   REMARKS
BLOOMINGTON    LGT RAIN  42  41  96 S8        30.13S FOG

$$




USA.gov is the U.S. government's official web portal to all federal, state and local government web resources and services.